星链-37770(STARLINK-37770)

导读

STARLINK-37770(NORAD编号69225)是美国SpaceX公司星链(Starlink)低轨宽带互联网星座的组网卫星,属于星链星座批量发射的卫星之一。星链卫星运行于600千米以下的近地轨道,旨在为全球提供高速宽带互联网服务。该卫星遵循SpaceX的太空可持续设计理念,具备可完全烧毁的再入设计,若出现故障也会在数年内通过大气自然衰减脱轨,减少空间碎片产生。目前该卫星作为星链星座的一部分,正常参与全球低轨互联网通信服务,支撑星链全球覆盖的组网目标。

Basic Information
目录编号:
69225
目录名称:
STARLINK-37770
国际标识:
2026-115Q
轨道中心:
EARTH
卫星名称:
星链-37770
卫星全名:
星链-37770(STARLINK-37770)
卫星状态:
在轨 (已飞行110 天)
发射日期:
2026-05-26 UTC
国别 :
美国 (US)
星等 :
--
This satellite is enrolled in the Space Conjunction Data Service (SCDS) and the current flight risk assessment level is: No High Risk
Orbit Information
数据来源 国际轨道数据
星历时间: 2026-09-13T08:12:59+0800
13小时前
查看轨道信息
半长轴: 6843.634km
偏心率: 0.0001617
轨道倾角: 97.283°
近地点辐角 95.320°
升交点赤经 272.232°
平近点角 264.823°
近地点: 464.39km
远地点: 466.604km
周期: 93.905分钟
每日圈数: 15.334606
Detailed Information
固有亮度:
5
最大亮度:
2.5
卫星平台:
Starlink V1.0
覆盖范围:
全球
运营商:
太空探索技术公司
运营商所在国:
美国
制造商(研发单位):
太空探索技术公司
制造商所在国:
美国
使用方式:
暂无
Satellite Introduction
Starlink 计划是 SpaceX 推出的全球卫星互联网项目,通过发射低轨道卫星,为全球尤其是偏远地区提供高速、低延迟的互联网服务。自 2019 年起,Starlink 已部署数千颗卫星,旨在缩小全球数字鸿沟,推动互联网普及。该项目还为军事、航空等行业提供通信支持,带来广泛经济效益。
2D Orbit Map
3D Orbit Map
Orbit Altitude Analysis Chart
Orbit Inclination Analysis Chart
Orbit Comprehensive Analysis Chart
View Comprehensive Chart
Conjunction Data List
Event ID Objects TCA Miss Dist (km) Collision Risk Probability Collision Risk Index (CRI) Action
CDM_260910-142000-346206-922521
2026-09-10T
14:20:34+0000
1.533 km
极远距离
5.894591E-6 低风险 0.5
CDM_260910-133300-346206-922521
2026-09-10T
13:33:33+0000
2.742 km
极远距离
1.434239E-6 低风险 0.38
CDM_260914-162904-299206-922521
2026-09-14T
16:29:03+0000
2.765 km
极远距离
1.397375E-6 低风险 0.38
CDM_260915-011806-231706-922521
2026-09-15T
01:18:49+0000
2.937 km
极远距离
1.235421E-6 低风险 0.37
Miss Distance Evolution Trend with All Objects
Collision Probability Evolution Trend with All Objects